User: anonymous   Login
Location: Unspecified
(0.0000°N, 0.0000°E)
Time: 00:36:24
(UTC+00:00)
Language:

Kosmos-2172 - Orbit

View from above orbital plane
View from above orbital plane
View from above satellite
View from above satellite

Ground track
Ground track

The orbit data is extracted from the following two-line orbital elements,

1 21796U 91081A   17206.63993375 +.00000034 +00000-0 +19140-4 0  9991
2 21796 082.9541 055.1787 0050491 056.6542 000.5201 13.75467967287792
Epoch (UTC): 25 July 2017 15:21:30
Eccentricity: 0.0050491
inclination: 82.9541°
perigee height: 943 km
apogee height: 1017 km
right ascension of ascending node: 55.1787°
argument of perigee: 56.6542°
revolutions per day: 13.75467967
mean anomaly at epoch: 0.5201°
orbit number at epoch: 28779

The dashed part of the orbit path shows where the satellite is in the earth's shadow,  

DLR